Hordafor III — LLVC — position and weather

sailwx.info

Track history (hours):
 
Tides and Currents Weather Stations Pressure Air Temp Water Temp Dewpoint Dewpoint Depression Visibility Wind Speed Wind Dir Waves Ship Positions

Hordafor III

Last reported at 2014-Jul-22 09:04 UTC. Time now 2014-Jul-24 05:57 UTC.
Position N 64°50' E 011°12'.

Length 50 m; draft 6.2 m.

Type: Ship. MMSI: 258044000.

Date/timePositionNaut miles runAvg speedWind from/ knotsBaromVisibWave heightAir tempDewpointWater temp
2014-Jul-22 09:04N 64°50' E 011°12'4 8.6
2014-Jul-22 08:34N 64°53' E 011°19'10 9.5
2014-Jul-22 07:33N 64°60' E 011°36'78 9.2
2014-Jul-21 23:06N 66°14' E 012°36'5 9.7
2014-Jul-21 22:33N 66°16' E 012°24'6 6.1
2014-Jul-21 21:34N 66°22' E 012°23'0 0.0
2014-Jul-21 20:34N 66°22' E 012°23'0 0.0
2014-Jul-21 20:18N 66°22' E 012°23'0 0.0
2014-Jul-21 19:34N 66°22' E 012°23'0 0.0
2014-Jul-21 18:33N 66°22' E 012°23'2 1.9
2014-Jul-21 17:34N 66°23' E 012°27'4 3.7
2014-Jul-21 16:34N 66°26' E 012°28'3 3.1
2014-Jul-21 15:33N 66°23' E 012°28'2 2.4
2014-Jul-21 14:33N 66°22' E 012°23'0 0.0
2014-Jul-21 13:34N 66°22' E 012°23'0 0.0
2014-Jul-21 12:34N 66°22' E 012°23'0 0.0
2014-Jul-21 11:33N 66°22' E 012°23'0 0.0
2014-Jul-21 10:34N 66°22' E 012°23'0 0.0
2014-Jul-21 09:34N 66°22' E 012°23'0 0.0
2014-Jul-21 08:34N 66°22' E 012°23'0 0.0
2014-Jul-21 07:34N 66°22' E 012°23'0 0.0
2014-Jul-21 06:34N 66°22' E 012°23'0 0.0
2014-Jul-21 05:34N 66°22' E 012°23'0 0.2
2014-Jul-21 04:34N 66°22' E 012°23'9 9.1
2014-Jul-21 03:34N 66°26' E 012°43'8 8.4
2014-Jul-21 02:33N 66°32' E 012°59'39 9.7
2014-Jul-20 22:31N 67°04' E 013°54'1010.4
2014-Jul-20 21:34N 67°13' E 014°07'1010.4
2014-Jul-20 20:34N 67°21' E 014°23'1010.2
2014-Jul-20 19:33N 67°31' E 014°30'1 0.0
2014-Jul-19 05:26N 67°30' E 014°29'910.7
2014-Jul-19 04:34N 67°21' E 014°23'1111.0
2014-Jul-19 03:33N 67°12' E 014°07'1310.9
2014-Jul-19 02:19N 67°02' E 013°46'38 3.8
2014-Jul-18 16:31N 66°29' E 012°58'9 9.3
2014-Jul-18 15:33N 66°25' E 012°38'7 7.1
2014-Jul-18 14:33N 66°22' E 012°23'0 0.0
2014-Jul-18 13:34N 66°22' E 012°23'0 0.0
2014-Jul-18 12:34N 66°22' E 012°23'1 0.8
2014-Jul-18 11:34N 66°21' E 012°24'3 2.9
2014-Jul-18 10:23N 66°18' E 012°21'4 4.6
2014-Jul-18 09:34N 66°22' E 012°23'0 0.0
2014-Jul-18 08:33N 66°22' E 012°23'0 0.0
2014-Jul-18 07:33N 66°22' E 012°23'0 0.0
2014-Jul-18 06:33N 66°22' E 012°23'0 0.0
2014-Jul-18 05:34N 66°22' E 012°23'0 0.0
2014-Jul-18 04:34N 66°22' E 012°23'0 0.0
2014-Jul-18 03:34N 66°22' E 012°23'0 0.0
2014-Jul-18 02:34N 66°22' E 012°23'0 0.0
2014-Jul-18 01:34N 66°22' E 012°23'0 0.0
2014-Jul-18 00:34N 66°22' E 012°23'0 0.0
2014-Jul-17 23:34N 66°22' E 012°23'2 2.2
2014-Jul-17 22:33N 66°23' E 012°28'10 9.7
2014-Jul-17 21:33N 66°33' E 012°25'5 0.3
2014-Jul-17 04:29N 66°37' E 012°25'1010.7
2014-Jul-17 03:33N 66°27' E 012°29'6 6.0
2014-Jul-17 02:34N 66°22' E 012°23'0 0.0
2014-Jul-17 01:34N 66°22' E 012°23'0 0.0
2014-Jul-17 00:34N 66°22' E 012°23'0 0.0
2014-Jul-16 23:34N 66°22' E 012°23'0 0.0
2014-Jul-16 22:34N 66°22' E 012°23'0 0.0
2014-Jul-16 21:34N 66°22' E 012°23'8 7.8
2014-Jul-16 20:34N 66°26' E 012°40'9 8.9
2014-Jul-16 19:33N 66°31' E 012°58'13 9.6
2014-Jul-16 18:12N 66°43' E 013°10'219 6.5
2014-Jul-15 08:33N 69°39' E 018°59'1 0.9
2014-Jul-15 07:33N 69°40' E 018°59'0 0.0
2014-Jul-15 06:34N 69°40' E 018°59'0 0.0
2014-Jul-15 05:31N 69°40' E 018°59'0 0.0
2014-Jul-15 04:31N 69°40' E 018°59'2 0.0
2014-Jul-13 04:25N 69°42' E 019°02'  
Track history (hours):
 
Tides and Currents Weather Stations Pressure Air Temp Water Temp Dewpoint Dewpoint Depression Visibility Wind Speed Wind Dir Waves Ship Positions

Hordafor III

Last reported at 2014-Jul-22 09:04 UTC. Time now 2014-Jul-24 05:57 UTC.
Position N 64°50' E 011°12'.

Length 50 m; draft 6.2 m.

Type: Ship. MMSI: 258044000.

Date/timePositionNaut miles runAvg speedWind from/ knotsBaromVisibWave heightAir tempDewpointWater temp
2014-Jul-22 09:04N 64°50' E 011°12'4 8.6
2014-Jul-22 08:34N 64°53' E 011°19'10 9.5
2014-Jul-22 07:33N 64°60' E 011°36'78 9.2
2014-Jul-21 23:06N 66°14' E 012°36'5 9.7
2014-Jul-21 22:33N 66°16' E 012°24'6 6.1
2014-Jul-21 21:34N 66°22' E 012°23'0 0.0
2014-Jul-21 20:34N 66°22' E 012°23'0 0.0
2014-Jul-21 20:18N 66°22' E 012°23'0 0.0
2014-Jul-21 19:34N 66°22' E 012°23'0 0.0
2014-Jul-21 18:33N 66°22' E 012°23'2 1.9
2014-Jul-21 17:34N 66°23' E 012°27'4 3.7
2014-Jul-21 16:34N 66°26' E 012°28'3 3.1
2014-Jul-21 15:33N 66°23' E 012°28'2 2.4
2014-Jul-21 14:33N 66°22' E 012°23'0 0.0
2014-Jul-21 13:34N 66°22' E 012°23'0 0.0
2014-Jul-21 12:34N 66°22' E 012°23'0 0.0
2014-Jul-21 11:33N 66°22' E 012°23'0 0.0
2014-Jul-21 10:34N 66°22' E 012°23'0 0.0
2014-Jul-21 09:34N 66°22' E 012°23'0 0.0
2014-Jul-21 08:34N 66°22' E 012°23'0 0.0
2014-Jul-21 07:34N 66°22' E 012°23'0 0.0
2014-Jul-21 06:34N 66°22' E 012°23'0 0.0
2014-Jul-21 05:34N 66°22' E 012°23'0 0.2
2014-Jul-21 04:34N 66°22' E 012°23'9 9.1
2014-Jul-21 03:34N 66°26' E 012°43'8 8.4
2014-Jul-21 02:33N 66°32' E 012°59'39 9.7
2014-Jul-20 22:31N 67°04' E 013°54'1010.4
2014-Jul-20 21:34N 67°13' E 014°07'1010.4
2014-Jul-20 20:34N 67°21' E 014°23'1010.2
2014-Jul-20 19:33N 67°31' E 014°30'1 0.0
2014-Jul-19 05:26N 67°30' E 014°29'910.7
2014-Jul-19 04:34N 67°21' E 014°23'1111.0
2014-Jul-19 03:33N 67°12' E 014°07'1310.9
2014-Jul-19 02:19N 67°02' E 013°46'38 3.8
2014-Jul-18 16:31N 66°29' E 012°58'9 9.3
2014-Jul-18 15:33N 66°25' E 012°38'7 7.1
2014-Jul-18 14:33N 66°22' E 012°23'0 0.0
2014-Jul-18 13:34N 66°22' E 012°23'0 0.0
2014-Jul-18 12:34N 66°22' E 012°23'1 0.8
2014-Jul-18 11:34N 66°21' E 012°24'3 2.9
2014-Jul-18 10:23N 66°18' E 012°21'4 4.6
2014-Jul-18 09:34N 66°22' E 012°23'0 0.0
2014-Jul-18 08:33N 66°22' E 012°23'0 0.0
2014-Jul-18 07:33N 66°22' E 012°23'0 0.0
2014-Jul-18 06:33N 66°22' E 012°23'0 0.0
2014-Jul-18 05:34N 66°22' E 012°23'0 0.0
2014-Jul-18 04:34N 66°22' E 012°23'0 0.0
2014-Jul-18 03:34N 66°22' E 012°23'0 0.0
2014-Jul-18 02:34N 66°22' E 012°23'0 0.0
2014-Jul-18 01:34N 66°22' E 012°23'0 0.0
2014-Jul-18 00:34N 66°22' E 012°23'0 0.0
2014-Jul-17 23:34N 66°22' E 012°23'2 2.2
2014-Jul-17 22:33N 66°23' E 012°28'10 9.7
2014-Jul-17 21:33N 66°33' E 012°25'5 0.3
2014-Jul-17 04:29N 66°37' E 012°25'1010.7
2014-Jul-17 03:33N 66°27' E 012°29'6 6.0
2014-Jul-17 02:34N 66°22' E 012°23'0 0.0
2014-Jul-17 01:34N 66°22' E 012°23'0 0.0
2014-Jul-17 00:34N 66°22' E 012°23'0 0.0
2014-Jul-16 23:34N 66°22' E 012°23'0 0.0
2014-Jul-16 22:34N 66°22' E 012°23'0 0.0
2014-Jul-16 21:34N 66°22' E 012°23'8 7.8
2014-Jul-16 20:34N 66°26' E 012°40'9 8.9
2014-Jul-16 19:33N 66°31' E 012°58'13 9.6
2014-Jul-16 18:12N 66°43' E 013°10'219 6.5
2014-Jul-15 08:33N 69°39' E 018°59'1 0.9
2014-Jul-15 07:33N 69°40' E 018°59'0 0.0
2014-Jul-15 06:34N 69°40' E 018°59'0 0.0
2014-Jul-15 05:31N 69°40' E 018°59'0 0.0
2014-Jul-15 04:31N 69°40' E 018°59'2 0.0
2014-Jul-13 04:25N 69°42' E 019°02'  

Dump ship's entire track history